Regional Weather Roundup
Issued by NWS

Home | Current Version | Previous Version | Text Only | Print | Product List | Glossary Off
Versions: 1 2 3 4 5 6 7 8 9 10 11 12 13 14 15 16 17 18 19 20 21 22 23 24 25 26 27 28 29 30 31 32 33 34 35 36 37 38 39 40 41 42 43 44 45 46 47 48 49 50

000
ASUS43 KDMX 041407
RWRIA

WEATHER ROUNDUP FOR IOWA
NATIONAL WEATHER SERVICE DES MOINES IA
900 AM CDT FRI SEP 04 2015

NOTE: "FAIR" INDICATES FEW OR NO CLOUDS BELOW 12,000 FEET WITH NO
SIGNIFICANT WEATHER AND/OR OBSTRUCTIONS TO VISIBILITY.

* - THESE STATIONS ARE NOT NWS STATIONS...THUS NOT UNDER NWS
QUALITY CONTROL.  THEY ALSO DO NOT REPORT WEATHER SUCH
AS PRECIPITATION OR FOG.

IAZ001>003-012>014-020>022-031>034-043>046-041500-
   NORTHWEST IOWA

CITY           SKY/WX    TMP DP  RH WIND       PRES   REMARKS
CARROLL *      SUNNY     75  72  88 S10       29.94S
CHEROKEE *     CLOUDY    73  70  88 S6        29.90F
DENISON *      SUNNY     75  70  83 S9        29.92R
LE MARS *      SUNNY     73  70  88 SE8       29.87F
ORANGE CITY *  SUNNY     72  70  94 S9        29.87F
SHELDON *      SUNNY     73  70  88 S8        29.87S
SIOUX CITY     LGT RAIN  72  66  81 S12       29.85F
SPENCER        MOSUNNY   75  68  78 S10       29.91S
STORM LAKE *   SUNNY     73  70  88 S9        29.93S
$$

IAZ055>058-069>071-079>083-090>094-041500-
   SOUTHWEST IOWA

CITY           SKY/WX    TMP DP  RH WIND       PRES   REMARKS
ATLANTIC *     SUNNY     75  70  83 S9        29.96S
AUDUBON *      SUNNY     77  72  83 S8        29.97S
CLARINDA *     SUNNY     75  72  88 S6        29.98R
COUNCIL BLFS * SUNNY     73  70  88 S8        29.95S
CRESTON *      SUNNY     75  70  83 S12       30.00R
LAMONI         MOSUNNY   77  70  79 S9        30.00R
RED OAK *      SUNNY     75  70  83 S7G13     29.96S
SHENANDOAH *   SUNNY     77  70  78 S8        29.96S
$$

IAZ047>049-059>061-072>074-084-041500-
   CENTRAL IOWA

CITY           SKY/WX    TMP DP  RH WIND       PRES   REMARKS
AMES           SUNNY     74  70  87 SE6       29.97S
ANKENY *       SUNNY     77  70  78 VRB6      29.97S
CHARITON *     SUNNY     77  70  78 S8        30.00R
DES MOINES     MOSUNNY   77  68  73 S8        29.97R
GRINNELL*      SUNNY     77  68  73 SW8       30.01R
KNOXVILLE *    SUNNY     75  70  83 S8        29.98R
MARSHALLTOWN   SUNNY     75  70  84 S6        29.98R
PELLA *        SUNNY     77  72  83 S5        30.01R
PERRY *          N/A     75  72  88 S5        29.96S
$$

IAZ004>006-015-016-023>025-035-036-041500-
   NORTH CENTRAL IOWA

CITY           SKY/WX    TMP DP  RH WIND       PRES   REMARKS
ALGONA *       SUNNY     75  70  83 S13       29.94F
CLARION *      SUNNY     75  70  83 S9G16     29.96F
ESTHERVILLE    SUNNY     73  69  87 S10       29.92S
FORT DODGE *   MOSUNNY   75  66  73 S8        29.97R
MASON CITY     SUNNY     75  70  84 S7        29.99R
FOREST CITY *  SUNNY     73  72  94 S5        29.97S
IOWA FALLS *     N/A     75  70  83 S6        30.00R
$$

IAZ007>011-017>019-026>030-037>042-050>054-066-041500-
   NORTHEAST IOWA

CITY           SKY/WX    TMP DP  RH WIND       PRES   REMARKS
CEDAR RAPIDS   SUNNY     76  72  87 S6        30.00R
CHARLES CITY * SUNNY     75  73  94 SE7       30.00R
CLINTON *      SUNNY     73  70  88 CALM      30.03R
DECORAH *      CLOUDY    70  70 100 VRB6      30.00R
DUBUQUE        SUNNY     72  69  90 SE3       30.02R FOG
MONTICELLO *   CLOUDY    73  72  94 S3        30.01R
OELWEIN *      SUNNY     75  72  88 SE7       30.01R
WATERLOO       SUNNY     77  70  79 S5        29.98R
$$

IAZ064-065-067-068-078-041500-
   EAST CENTRAL IOWA

CITY           SKY/WX    TMP DP  RH WIND       PRES   REMARKS
DAVENPORT      SUNNY     77  72  84 CALM      30.00S
IOWA CITY      SUNNY     76  70  82 CALM      30.01R
MT. PLEASANT * SUNNY     81  68  65 CALM      30.01R HX  83
MUSCATINE *    SUNNY     77  70  78 CALM      30.00R
QUAD CITIES    MOSUNNY   78  69  73 CALM      30.00R HX  80
$$

IAZ062-063-075>077-085>089-095>099-041500-
   SOUTHEAST IOWA

CITY           SKY/WX    TMP DP  RH WIND       PRES   REMARKS
BURLINGTON     SUNNY     78  72  81 SW3       30.00R HX  80
FAIRFIELD *    SUNNY     79  70  73 SW5       30.01R HX  81
FORT MADISON * SUNNY     79  72  78 SW3       30.01S HX  82
KEOKUK *       SUNNY     79  72  78 SW3       30.00R HX  82
OSKALOOSA *      N/A     77  70  78 S5        30.01R
CENTERVILLE *  SUNNY     75  72  88 S5        30.02S
OTTUMWA        SUNNY     76  71  85 S6        29.99R
WASHINGTON *     N/A    N/A N/A N/A MISG        N/A
$$

ABBREVIATIONS USED IN REMARKS
   TC - TEMPERATURES IN CELSIUS
  WCI - WIND CHILL INDEX
   HX - HEAT INDEX
  VSB - VISIBILITY
$$




USA.gov is the U.S. government's official web portal to all federal, state and local government web resources and services.